Weather History for Worland, WY

Change the Weather History Date:

Monday, January 14, 2013

  Actual Average Record
Temperature  
Mean Temperature -3 °F 17 °F  
Max Temperature 12 °F 30 °F 60 °F (1995)
Min Temperature -19 °F 3 °F -28 °F (1972)
Degree Days  
Heating Degree Days 68 48  
Month to date heating degree days 762 682  
Since 1 July heating degree days 3504 4045  
Cooling Degree Days 0 0  
Month to date cooling degree days 0 0  
Year to date cooling degree days 0 0  
Moisture  
Dew Point -9 °F    
Average Humidity 78    
Maximum Humidity 89    
Minimum Humidity 66    
Precipitation  
Precipitation T in 0.01 in 0.50 in (1967)
Month to date precipitation 0.04 0.11  
Year to date precipitation 0.04 0.11  
Sea Level Pressure  
Sea Level Pressure 30.42 in    
Wind  
Wind Speed 3 mph (South)    
Max Wind Speed 30 mph    
Max Gust Speed 31 mph    
Visibility 10 miles    
Events      
T = Trace of Precipitation, MM = Missing Value Source: NWS Daily Summary

Daily Weather History Graph

Daily Weather History Graph

Search for Another Location

Airport:

Trip Planner

Search our weather history database for the weather conditions in past years. The results will help you decide how hot, cold, wet, or windy it might be!

Date:

Astronomy

Jan. 14, 2013 Rise Set
Actual Time 7:43 AM MST 4:58 PM MST
Civil Twilight 7:11 AM MST 5:30 PM MST
Nautical Twilight 6:35 AM MST 6:06 PM MST
Astronomical Twilight 6:01 AM MST 6:41 PM MST
Moon 9:10 AM MST (1/14) 8:57 PM MST (1/14)
Length of Visible Light 10h 19m
Length of Day
9h 15m
Waxing Crescent, 12% of the Moon is Illuminated
Jan 14
Waxing Crescent
Jan 18
First Quarter
Jan 26
Full
Feb 3
Last Quarter
Feb 10
New

Hourly Weather History & Observations

Time (MST) Temp. Windchill Dew Point Humidity Pressure Visibility Wind Dir Wind Speed Gust Speed Precip Events Conditions
12:53 AM -15.0 °F -32.4 °F -20.0 °F 78% 30.46 in 10.0 mi South 8.1 mph - N/A   Partly Cloudy
1:53 AM -11.0 °F - -16.1 °F 78% 30.45 in 10.0 mi Calm Calm - N/A   Mostly Cloudy
2:53 AM -9.9 °F -24.9 °F -15.0 °F 78% 30.46 in 10.0 mi South 6.9 mph - N/A   Overcast
3:53 AM -8.0 °F -16.9 °F -11.9 °F 83% 30.46 in 10.0 mi SSW 3.5 mph - N/A   Overcast
4:53 AM -9.0 °F -18.2 °F -13.0 °F 83% 30.48 in 10.0 mi SSW 3.5 mph - N/A   Overcast
5:53 AM -11.0 °F -24.6 °F -16.1 °F 78% 30.49 in 10.0 mi SSW 5.8 mph - N/A   Partly Cloudy
6:53 AM -15.0 °F -25.0 °F -20.0 °F 78% 30.52 in 10.0 mi South 3.5 mph - N/A   Clear
7:53 AM -11.9 °F -21.5 °F -17.0 °F 78% 30.53 in 10.0 mi SSE 3.5 mph - N/A   Clear
8:53 AM -17.0 °F -27.2 °F -18.9 °F 91% 30.56 in 10.0 mi Variable 3.5 mph - N/A   Clear
9:53 AM -9.9 °F -19.2 °F -13.0 °F 86% 30.54 in 10.0 mi SW 3.5 mph - N/A   Clear
11:53 AM -0.0 °F - -7.1 °F 72% 30.45 in 10.0 mi Calm Calm - 0.00 in   Clear
12:53 PM -0.0 °F - -7.1 °F 72% 30.41 in 10.0 mi Calm Calm - N/A   Clear
1:53 PM 10.9 °F 1.4 °F 1.0 °F 64% 30.32 in 10.0 mi ESE 5.8 mph - N/A   Clear
2:53 PM 10.9 °F 2.9 °F 1.9 °F 67% 30.31 in 10.0 mi ESE 4.6 mph - N/A   Clear
3:53 PM 7.0 °F - -0.0 °F 73% 30.31 in 10.0 mi Calm Calm - N/A   Clear
4:53 PM 5.0 °F - -2.9 °F 70% 30.32 in 10.0 mi Calm Calm - N/A   Clear
5:53 PM 3.9 °F - -5.1 °F 66% 30.35 in 10.0 mi Calm Calm - N/A   Overcast
6:53 PM -2.0 °F -10.1 °F -8.0 °F 76% 30.39 in 10.0 mi Variable 3.5 mph - N/A   Squalls
7:53 PM -2.9 °F -16.5 °F -9.0 °F 75% 30.38 in 10.0 mi SSW 6.9 mph - N/A   Mostly Cloudy
8:53 PM 1.9 °F -7.6 °F -4.0 °F 76% 30.39 in 10.0 mi South 4.6 mph - N/A   Overcast
9:53 PM 3.0 °F -6.4 °F -2.9 °F 76% 30.39 in 10.0 mi SW 4.6 mph - N/A   Overcast
10:53 PM 3.0 °F -4.4 °F -2.0 °F 80% 30.37 in 10.0 mi SW 3.5 mph - N/A   Overcast
11:53 PM 3.9 °F - -2.9 °F 73% 30.35 in 10.0 mi Calm Calm - N/A   Overcast